This is the latest recevied weather packets stored in our database for station/object W4TTU-1. If no packets are shown the sender has not sent any weather packets the latest 10 day(s).
| Time | Temp. | Humidity | Pressure | Rain* | Wind** | Luminosity | Snow |
|---|---|---|---|---|---|---|---|
| 1777303588 | 1.67° C | 48% | 845.4 hPa | 0 mm | - | - | - |
| 1777302688 | 1.11° C | 48% | 845.4 hPa | 0 mm | - | - | - |
| 1777301788 | 0° C | 47% | 845.5 hPa | 0 mm | - | - | - |
| 1777300886 | -0.56° C | 46% | 845.7 hPa | 0 mm | - | - | - |
| 1777299986 | -1.67° C | 45% | 845.7 hPa | 0 mm | - | - | - |
| 1777299085 | -2.22° C | 44% | 845.8 hPa | 0 mm | - | - | - |
| 1777297284 | -2.22° C | 43% | 845.9 hPa | 0 mm | - | - | - |
| 1777296384 | -2.22° C | 43% | 845.7 hPa | 0 mm | - | - | - |
| 1777295483 | -2.22° C | 43% | 845.7 hPa | 0 mm | - | - | - |
| 1777294583 | -2.22° C | 43% | 845.6 hPa | 0 mm | - | - | - |
| 1777293682 | -2.22° C | 44% | 845.4 hPa | 0 mm | - | - | - |
| 1777292782 | -2.22° C | 44% | 845.3 hPa | 0 mm | - | - | - |
| 1777291881 | -2.22° C | 44% | 845.4 hPa | 0 mm | - | - | - |
| 1777290080 | -2.22° C | 44% | 845.1 hPa | 0 mm | - | - | - |
| 1777289180 | -2.22° C | 44% | 845.1 hPa | 0 mm | - | - | - |
| 1777288279 | -2.22° C | 44% | 845.4 hPa | 0 mm | - | - | - |
| 1777287378 | -2.22° C | 45% | 845.3 hPa | 0 mm | - | - | - |
| 1777286478 | -2.22° C | 45% | 845.3 hPa | 0 mm | - | - | - |
| 1777285577 | -2.22° C | 44% | 845.3 hPa | 0 mm | - | - | - |
| 1777284677 | -2.22° C | 44% | 845.3 hPa | 0 mm | - | - | - |
| 1777281975 | -2.22° C | 44% | 845.2 hPa | 0 mm | - | - | - |
| 1777281075 | -2.22° C | 44% | 845.1 hPa | 0 mm | - | - | - |
| 1777280174 | -1.67° C | 44% | 845.1 hPa | 0 mm | - | - | - |
| 1777279274 | -1.67° C | 43% | 845.3 hPa | 0 mm | - | - | - |
* Rain since midnight (hover to see other rain measurements)
** Current wind speed in m/s (hover to see current wind gust speed)